Location: Kearney
(40.6990°N, 99.0810°W)
Time: 14:46:19
(UTC-06:00)

CZ-4 R/B - Pass Details

Date: 18 December 2017
Orbit: 580 x 590 km, 97.8° (Epoch: 20 January)

Event Time Altitude Azimuth Distance (km) Brightness Sun altitude
Rises 18:19:13 0° 159° (SSE) 2,800 7.9 -12.5°
Reaches altitude 10° 18:21:23 10° 156° (SSE) 1,903 7.0 -12.9°
Maximum altitude 18:25:28 64° 75° (ENE) 651 4.4 -13.6°
Drops below altitude 10° 18:29:34 10° 354° (N) 1,912 6.9 -14.3°
Sets 18:31:44 0° 351° (N) 2,815 7.8 -14.7°
